Retour au catalogue

STARLINK-32385

ActifCommunicationsVLEO
NORAD 61068·PAYLOAD·🇺🇸 United States

Lancé Sep 13, 2024 depuis Vandenberg Space Force Base

Loading…

Prochains Passages (prochaines 24 heures)

TLE

FraisSource: CelesTrak SupGP

Époque: Sep 15, 2026, 02:50 UTC

1 61068C 24164U   26258.11854167  .00011535  00000+0  37087-3 0  2584
2 61068  53.1588 290.0309 0001130  94.0536  28.5795 15.31702774    12

Suivez STARLINK-32385 en temps réel avec AllMySat

Download on the App Store